www.pogodaiklimat.ru

Погода и климат >> Архив погоды >> Россия >> Якутия >> Ытык-Кюёль


ПОГОДА в Ытык-Кюёле

  • Прогноз погоды в Ытык-Кюёле
  • Монитор погоды в Ытык-Кюёле

АРХИВ ПОГОДЫ в Ытык-Кюёле

Время (UTC), дата Ветер
(напр.,м/с)
 
Видим.   Явления Облачность Т
(С)
Тd
(С)
f
(%)
Тe
(С)
Тes
(С)
Комфортность P
(гПа)
Po
(гПа)
Тmin
(С)
Tmax
(С)
R
(мм)
R24
(мм)
S
(см)
12 15.01 штиль 0 20 км слаб. снег 10/0
[As trans]
-38.6 -40.2 85 -39 -39 опасность
обморожения
1028.2 1005.8 -38.1 0.4
15 15.01 штиль 0 20 км {снег} 10/0
[As trans]
-39.9 -41.6 84 -40 -40 опасность
обморожения
1029.3 1006.7
18 15.01 штиль 0 20 км 4/0
[Cs]
-41.2 -42.6 86 -41 -41 опасность
обморожения
1029.9 1007.1
21 15.01 штиль 0 20 км 4/0
[Cs]
-43.9 -45.1 88 -44 -44 опасность
обморожения
1030.8 1007.7
00 16.01 штиль 0 2000 м дымка 10 баллов -44.8 -46.7 81 -45 -45 опасность
обморожения
1033.9 1010.7 -45.1 0.0
06 16.01 ЮЗ 1 50 км 10 баллов -39.8 -41.6 83 -45 -45 опасность
обморожения
1034.8 1012.0
09 16.01 штиль 0 20 км 10 баллов -41.7 -43.2 85 -42 -42 опасность
обморожения
1036.3 1013.3
12 16.01 штиль 0 20 км 10 баллов -43.3 -45.1 82 -43 -43 опасность
обморожения
1037.9 1014.7 -39.8
15 16.01 штиль 0 20 км 10 баллов -44.8 -46.7 81 -45 -45 опасность
обморожения
1038.0 1014.7
21 16.01 штиль 0 20 км 10 баллов -46.3 -47.5 87 -46 -46 опасность
обморожения
1036.7 1013.3
00 17.01 штиль 0 4000 м дымка 7 баллов -46.6 -48.5 81 -47 -47 опасность
обморожения
1036.8 1013.3 -46.7
03 17.01 штиль 0 4000 м дымка 6 баллов -44.4 -45.9 85 -44 -44 опасность
обморожения
1035.2 1012.0
06 17.01 штиль 0 4000 м дымка 5 баллов -42.2 -43.8 84 -42 -42 опасность
обморожения
1033.7 1010.7
09 17.01 штиль 0 20 км дымка 2 балла -44.0 -45.9 81 -44 -44 опасность
обморожения
1033.8 1010.7
12 17.01 штиль 0 20 км дымка 2 балла -45.5 -46.6 88 -46 -46 опасность
обморожения
1032.6 1009.3 -42.2
15 17.01 штиль 0 20 км 10 баллов -41.5 -43.2 83 -42 -42 опасность
обморожения
1029.5 1006.7
18 17.01 штиль 0 20 км 10 баллов -41.7 -43.2 85 -42 -42 опасность
обморожения
1029.5 1006.7
21 17.01 штиль 0 20 км 2 балла -44.6 -45.9 87 -45 -45 опасность
обморожения
1028.4 1005.3
00 18.01 штиль 0 50 км 10 баллов -43.3 -45.1 82 -43 -43 опасность
обморожения
1026.9 1004.0 -45.5
03 18.01 штиль 0 50 км 8/0
[Cs]
-42.1 -43.8 83 -42 -42 опасность
обморожения
1025.0 1002.3
06 18.01 штиль 0 50 км 7 баллов -40.7 -42.1 86 -41 -41 опасность
обморожения
1025.3 1002.7
09 18.01 штиль 0 20 км 8/0
[Cs]
-42.9 -44.4 85 -43 -43 опасность
обморожения
1024.8 1002.1
12 18.01 штиль 0 20 км 4 балла -44.7 -45.9 88 -45 -45 опасность
обморожения
1025.7 1002.7 -40.7
15 18.01 штиль 0 20 км 7 баллов -45.0 -46.7 83 -45 -45 опасность
обморожения
1025.8 1002.7
18 18.01 штиль 0 20 км 7 баллов -45.8 -47.5 83 -46 -46 опасность
обморожения
1027.2 1004.0
21 18.01 штиль 0 20 км 7 баллов -46.0 -47.4 85 -46 -46 опасность
обморожения
1027.2 1004.0
00 19.01 штиль 0 50 км 5 баллов -46.8 -48.4 83 -47 -47 опасность
обморожения
1028.6 1005.3 -46.8
03 19.01 штиль 0 50 км 5 баллов -45.3 -46.7 86 -45 -45 опасность
обморожения
1028.5 1005.3
06 19.01 штиль 0 50 км 2 балла -41.8 -43.2 86 -42 -42 опасность
обморожения
1028.1 1005.3
09 19.01 штиль 0 20 км 4 балла -42.8 -44.4 84 -43 -43 опасность
обморожения
1029.6 1006.7
12 19.01 штиль 0 20 км 7 баллов -45.3 -46.7 86 -45 -45 опасность
обморожения
1029.9 1006.7 -41.8
15 19.01 штиль 0 20 км 7 баллов -46.3 -47.5 87 -46 -46 опасность
обморожения
1030.0 1006.7
18 19.01 штиль 0 20 км 7 баллов -46.9 -48.4 84 -47 -47 опасность
обморожения
1030.1 1006.7
21 19.01 штиль 0 20 км 7 баллов -47.3 -48.5 87 -47 -47 опасность
обморожения
1028.7 1005.3
00 20.01 штиль 0 50 км 9 баллов -46.1 -47.4 86 -46 -46 опасность
обморожения
1027.2 1004.0 -47.3
03 20.01 СВ 1 50 км 10 баллов -43.6 -45.1 85 -49 -49 опасность
обморожения
1025.6 1002.7
06 20.01 штиль 0 50 км 10 баллов -40.3 -42.1 83 -40 -40 опасность
обморожения
1023.9 1001.3
09 20.01 штиль 0 20 км 10 баллов -42.0 -43.8 82 -42 -42 опасность
обморожения
1022.7 1000.0
12 20.01 штиль 0 20 км 10 баллов -43.2 -44.4 88 -43 -43 опасность
обморожения
1021.5 998.7 -40.3
15 20.01 штиль 0 20 км 10 баллов -44.6 -45.9 87 -45 -45 опасность
обморожения
1021.6 998.7
18 20.01 штиль 0 20 км 10 баллов -44.6 -45.9 87 -45 -45 опасность
обморожения
1020.2 997.3
21 20.01 штиль 0 20 км 10 баллов -45.8 -47.5 83 -46 -46 опасность
обморожения
1020.3 997.3
00 21.01 штиль 0 2000 м дымка 10 баллов -45.9 -47.4 84 -46 -46 опасность
обморожения
1020.3 997.3 -46.0
03 21.01 штиль 0 50 км 7 баллов -43.6 -45.1 85 -44 -43 опасность
обморожения
1018.8 996.0
06 21.01 штиль 0 50 км 10 баллов -39.9 -41.0 89 -40 -40 опасность
обморожения
1018.4 996.0
09 21.01 штиль 0 20 км 10 баллов -41.3 -42.6 87 -41 -41 опасность
обморожения
1018.5 996.0
12 21.01 штиль 0 20 км 10 баллов -43.3 -45.1 82 -43 -43 опасность
обморожения
1020.1 997.3 -39.9
15 21.01 штиль 0 20 км 10 баллов -41.6 -43.2 84 -42 -42 опасность
обморожения
1019.9 997.3
18 21.01 штиль 0 20 км 10 баллов -40.8 -42.5 83 -41 -41 опасность
обморожения
1021.3 998.7
21 21.01 штиль 0 20 км 10 баллов -39.7 -40.5 92 -40 -40 опасность
обморожения
1022.5 1000.0
00 22.01 штиль 0 50 км 10 баллов -37.6 -39.3 84 -38 -38 опасность
обморожения
1023.6 1001.3 -43.3
06 22.01 штиль 0 50 км 10 баллов -31.5 -32.7 89 -32 -32 опасность
обморожения
1025.8 1004.0
09 22.01 штиль 0 20 км 10 баллов -33.5 -34.7 89 -34 -34 опасность
обморожения
1027.3 1005.3

 

Местоположение метеостанции Ытык-Кюёль (Якутия, Россия): широта 62.37 долгота 133.50 высота над уровнем моря 152 м.

В архиве по умолчанию представлена погода в Ытык-Кюёле за последнюю неделю. Архивные данные за месяц целиком и за предыдущие месяцы, начиная с января 2011 года, Вы можете получить, выбрав интересующий диапазон дат из раскрывающегося списка и нажав кнопку "Ввод!".


*Определитесь, кто Вы:
робот инопланетянин человек

Внимание! Время в таблицах - всемирное. Для получения местного времени необходимо прибавить поправку, которая равна 9 ч.

Смотрите также архив погоды в соседних городах и на ближайших метеорологических станциях:

Погода в Чурапче (Якутия, Россия) (60 км)
Погода в Крест-Хальджае (Якутия, Россия) (68 км)
Погода в Охотском Перевозе (Якутия, Россия) (118 км)
Погода в Верхоянском Перевозе (Якутия, Россия) (130 км)
Погода в Теплом Ключе (Якутия, Россия) (175 км)
Погода в Амге (Якутия, Россия) (184 км)
Погода в Намцах (Якутия, Россия) (204 км)
Погода в Якутске (Якутия, Россия) (207 км)
Погода в Томпо (Якутия, Россия) (210 км)
Погода в Усть-Мае (Якутия, Россия) (230 км)

Пояснения к столбцам:

Ветер - указаны скорость ветра в м/с - средняя за 10 мин, порывы в срок и между сроками (в фигурных скобках) и направление, откуда дует ветер: С - северный, СВ - северо-восточный, В - восточный, ЮВ - юго-восточный, Ю - южный, ЮЗ - юго-западный, З - западный, СЗ - северо-западный.
Видимость - горизонтальная дальность видимости в метрах или километрах. При видимости от 1 до 10 км при отсутствии осадков обычно наблюдается дымка, при ухудшении видимости до 1 км и менее - туман. В сухую погоду видимость может ухудшаться дымом, пылью или мглою.
Явления - указаны атмосферные явления, наблюдавшиеся в срок или в последний час перед сроком; фигурными скобками обозначены явления, наблюдавшиеся между сроками (за 1-3 часа до срока); квадратными скобками обозначены град или гололедные отложения с указанием их диаметра в мм.
Облачность - указаны через наклонную черту общая и нижняя облачность в баллах и высота нижней границы облаков в метрах; квадратными скобками обозначены формы облаков: Ci - перистые, Cs - перисто-слоистые, Cc - перисто-кучевые, Ac - высококучевые, As - высокослоистые, Sc - слоисто-кучевые, Ns - слоисто-дождевые, Cu - кучевые, Cb - кучево-дождевые. Подробнее классификацию облаков см. в Атласе облаков (PDF).
T - Температура воздуха - температура, измеренная на высоте 2 м над землей.
Td - Температура точки росы - температура, при понижении до которой содержащийся в воздухе водяной пар достигнет насыщения.
f - Относительная влажность воздуха - влажноcть воздуха, измеренная на высоте 2 м над землей.
Te - Эффективная температура - температура, которую ощущает одетый по сезону человек в тени. Характеристика душности погоды. При расчете учитывается влияние влажности воздуха и скорости ветра на теплоощущения человека.
Tes - Эффективная температура на солнце - температура, которую ощущает человек, с поправкой на солнечный нагрев. Характеристика знойности погоды. Зависит от высоты солнца над горизонтом, облачности и скорости ветра. Ночью, в пасмурную погоду, а также при ветре 12 м/с и более поправка равна нулю.
P - Атмосферное давление - приведенное к уровню моря атмосферное давление.
Po - Атмосферное давление - измеренное на уровне метеостанции атмосферное давление.
Tmin - Минимальная температура - минимум температуры воздуха на высоте 2 м над землей.
Tmax - Максимальная температура - максимум температуры воздуха на высоте 2 м над землей.
R - Количество осадков - Количество выпавших осадков за период времени, мм. При наведении курсора мыши на число - период времени, за который выпало указанное количество осадков.
R24 - Количество осадков - Количество выпавших осадков за 24 часа, мм.
S - Снежный покров - Высота снежного покрова, см. При наведении курсора мыши на число - состояние снежного покрова и степень покрытия местности в баллах.